Regional Weather Roundup
Issued by NWS

Home | Current Version | Previous Version | Graphics & Text | Print | Product List | Glossary On
Versions: 1 2 3 4 5 6 7 8 9 10 11 12 13 14 15 16 17 18 19 20 21 22 23 24 25 26 27 28 29 30 31 32 33 34 35 36 37 38 39 40 41 42 43 44 45 46 47 48 49 50
000
ASUS43 KMPX 271210
RWRMN
WEATHER ROUNDUP FOR MINNESOTA
NATIONAL WEATHER SERVICE TWIN CITIES/CHANHASSEN MN
600 AM CST FRI FEB 27 2015


NOTE: "FAIR" INDICATES FEW OR NO CLOUDS BELOW 12,000 FEET WITH NO
SIGNIFICANT WEATHER AND/OR OBSTRUCTIONS TO VISIBILITY. N/A MEANS
CURRENT SKY AND/OR WEATHER CONDITIONS ARE NOT AVAILABLE.

MNZ060>063-068>070-271300-
   Twin Cities Metro

CITY           SKY/WX    TMP DP  RH WIND       PRES   REMARKS
TWIN CITIES    CLEAR     -4 -10  75 SW5       30.53R WCI -15
6HR MIN TEMP:  -4; 6HR MAX TEMP:   1;

ST PAUL        CLEAR     -3  -8  79 SW7       30.55R WCI -16
CRYSTAL        CLEAR     -3  -9  75 W6        30.52R WCI -15
BLAINE         CLEAR      0  -6  78 W5        30.51R WCI -10
EDEN PRAIRIE   CLEAR     -9 -14  78 SW3       30.52R
6HR MIN TEMP:  -9; 6HR MAX TEMP:  -2;

SOUTH ST PAUL  CLEAR     -3  -9  77 CALM      30.54R
LAKE ELMO      FAIR      -8 -13  77 CALM      30.52R
$$
MNZ001>005-007-008-013>017-022>024-027-028-271300-
   Northwest Minnesota

CITY           SKY/WX    TMP DP  RH WIND       PRES   REMARKS
BEMIDJI        PTCLDY   -14 -18  81 SW3       30.39S
HALLOCK        PTCLDY   -15 -20  76 S8        30.41S WCI -32
ROSEAU         PTCLDY    -9 -17  70 SW8       30.38S WCI -26
WARROAD        PTCLDY    -9 -15  77 SW5       30.37S WCI -21
THIEF RVR FALL PTCLDY   -15 -15 100 SW3       30.40S
CROOKSTON      PTCLDY   -15 -20  76 S6        30.46S WCI -29
FOSSTON        PTCLDY   -18 -24  76 S7        30.42R WCI -35
DETROIT LAKES  PTCLDY    -9 -15  77 SW3       30.44R
MOORHEAD       PTCLDY    -9 -11  92 SW5       30.49S WCI -21
PARK RAPIDS    PTCLDY   -15 -21  74 CALM      30.40S
MAHNOMEN       FAIR     -13 -18  79 S8        30.43S WCI -30
$$
MNZ006-009>011-018-025>026-271300-
   North Central Minnesota

CITY           SKY/WX    TMP DP  RH WIND       PRES   REMARKS
BAUDETTE       MOCLDY   -14 -20  74 SW5       30.35S WCI -26
FLAG ISLAND    MOCLDY   -15 -20  76 S3        30.35S
INTL FALLS     PTCLDY   -16 -23  70 SW3       30.36S
6HR MIN TEMP: -18; 6HR MAX TEMP:  -8;

WASKISH        PTCLDY   -17 -20  83 CALM      30.39R
BIG FORK       PTCLDY   -24 -31  69 CALM      30.38R
LONGVILLE      PTCLDY   -22 -27  76 CALM      30.41S
GRAND RAPIDS   PTCLDY    -9 -17  70 W3        30.37R
CRANE LAKE     MOCLDY   -27 -33  75 CALM      30.40R
ORR            FAIR     -17 -22  76 CALM      30.33S
COOK           PTCLDY   -22 -29  69 CALM      30.37R
WALKER         FAIR     -12 -16  82 W3        30.40S
$$
MNZ012-019>021-037-271300-
   Northeast Minnesota

CITY           SKY/WX    TMP DP  RH WIND       PRES   REMARKS
DULUTH         MOCLDY   -10 -16  74 W7        30.37R WCI -25
6HR MIN TEMP: -11; 6HR MAX TEMP:  -2;

ELY            PTCLDY   -17 -20  83 CALM      30.34S
HIBBING        MOCLDY   -22 -28  74 CALM      30.38R
EVELETH        MOCLDY   -15 -20  76 SW3       30.37S
DULUTH HARBOR  PTCLDY    -8 -13  77 CALM      30.49R
TWO HARBORS    PTCLDY    -8 -15  71 W7        30.38R WCI -22
SILVER BAY     PTCLDY    -9 -17  70 CALM      30.36S
GRAND MARAIS     N/A      1 -12  54 CALM      30.40R
G MARAIS ARPRT PTCLDY   -13 -18  77 SW5       30.26S WCI -25
$$
MNZ029>031-032-039>041-046>048-054>057-064-271300-
   West Central Minnesota

CITY           SKY/WX    TMP DP  RH WIND       PRES   REMARKS
FERGUS FALLS   PTCLDY   -11 -17  77 SW6       30.53S WCI -25
WHEATON        CLEAR    -11 -17  77 W3        30.54R
MORRIS         CLEAR     -9 -15  77 W5        30.50R WCI -21
ALEXANDRIA     PTCLDY    -9 -17  68 W3        30.45S
ELBOW LAKE     FAIR     -14 -18  81 SW5       30.48S WCI -26
WADENA         FAIR     -13 -17  84 SW5       30.44R WCI -25
GLENWOOD       PTCLDY   -11 -17  77 W6        30.48R WCI -25
APPLETON       CLEAR    -11 -17  77 SW3       30.53S
BENSON         PTCLDY   -15 -18  84 CALM      30.51R
ORTONVILLE     CLEAR     -9 -15  77 CALM      30.51S
MADISON        CLEAR     -9 -15  77 W5        30.53S WCI -21
WILLMAR        FAIR     -11 -17  77 W3        30.51S
$$
MNZ033>034-036-042>043-049>051-058-059-271300-
   Central Minnesota

CITY           SKY/WX    TMP DP  RH WIND       PRES   REMARKS
ST CLOUD       CLEAR     -8 -13  78 CALM      30.50R
6HR MIN TEMP:  -8; 6HR MAX TEMP:  -2;

SAUK CENTRE    FAIR      -8 -13  80 W3        30.48R
PAYNESVILLE    CLEAR    -13 -17  83 SW5       30.50R WCI -26
AITKIN         PTCLDY    -6 -13  71 CALM      30.42S
PINE RIVER     PTCLDY   -18 -24  76 CALM      30.45R
BRAINERD       CLEAR    -16 -20  82 CALM      30.45R
STAPLES        PTCLDY   -11 -15  84 CALM      30.44S
LONG PRAIRIE   FAIR      -9 -13  84 CALM      30.46S
LITTLE FALLS   CLEAR    -13 -17  84 CALM      30.49R
LITCHFIELD     CLEAR     -9 -13  84 CALM      30.51R
BUFFALO        FAIR      -6  -9  84 CALM      30.53R
MAPLE LAKE     CLEAR     -4  -8  84 W6        30.51S WCI -16
$$
MNZ037-044-045-052-053-271300-
   East Central Minnesota

CITY           SKY/WX    TMP DP  RH WIND       PRES   REMARKS
PRINCETON      FAIR      -9 -15  77 CALM      30.49R
MORA           CLEAR    -15 -22  70 CALM      30.49R
CAMBRIDGE      CLEAR     -9 -17  70 CALM      30.49R
RUSH CITY      MOCLDY    -9 -14  79 W3        30.49R
MOOSE LAKE     CLEAR    -13 -17  84 CALM      30.43S
HINCKLEY       FAIR     -15 -18  84 CALM      30.47R
CLOQUET        FAIR     -11 -17  77 W6        30.40R WCI -25
MCGREGOR       CLEAR     -8 -11  84 CALM      30.43S
$$
MNZ071>073-080-081-089-090-097-098-271300-
   Southwest Minnesota

CITY           SKY/WX    TMP DP  RH WIND       PRES   REMARKS
MONTEVIDEO     PTCLDY    -9 -15  77 W5        30.54S WCI -21
GRANITE FALLS  CLEAR    -13 -18  78 W5        30.55S WCI -25
CANBY          CLEAR     -7 -12  77 W3        30.53S
MARSHALL       CLEAR     -8 -17  65 W9        30.52S WCI -25
REDWOOD FALLS  FAIR     -10 -15  78 W7        30.54R WCI -25
OLIVIA         CLEAR    -11 -17  77 W3        30.53R
PIPESTONE      FAIR     -15 -20  76 CALM      30.47S
WINDOM         CLEAR    -15 -18  84 CALM      30.50S
WORTHINGTON    PTCLDY    18 -26  13 W8        30.51R WCI   7
JACKSON        CLEAR    -11 -17  77 W6        30.51R WCI -25
TRACY          CLEAR     -8 -14  76 SW8       30.50S WCI -25
SLAYTON        PTCLDY    -8 -14  76 CALM      30.48S
$$
MNZ065>067-074>077-082>085-091>093-271300-
   South Central Minnesota

CITY           SKY/WX    TMP DP  RH WIND       PRES   REMARKS
MANKATO        CLEAR     -9 -18  64 W3        30.52S
NEW ULM        CLEAR    -17 -24  70 W6        30.53S WCI -31
FAIRMONT       PTCLDY    -9 -15  77 W6        30.50S WCI -23
GLENCOE        CLEAR     -9 -13  81 W5        30.52R WCI -20
FARIBAULT      PTCLDY   -15 -20  76 CALM      30.52R
OWATONNA       PTCLDY   -15 -20  76 CALM      30.51S
WASECA         PTCLDY   -17 -22  76 S3        30.54R
ALBERT LEA     PTCLDY   -11 -17  77 CALM      30.51R
$$
MNZ078>079-086>088-094>096-271300-
   Southeast Minnesota

CITY           SKY/WX    TMP DP  RH WIND       PRES   REMARKS
ROCHESTER      PTCLDY   -14 -18  82 W10       30.48R WCI -34
6HR MIN TEMP: -14; 6HR MAX TEMP:  -9;

RED WING       CLEAR    -15 -20  76 CALM      30.53R
STANTON        PTCLDY   -10 -16  76 SW6       30.52R WCI -24
DODGE CENTER   PTCLDY   -18 -22  83 W6        30.47S WCI -33
WINONA         CLEAR     -9 -15  77 CALM      30.57R
AUSTIN         PTCLDY   -15 -20  76 CALM      30.50S HAZE
PRESTON        PTCLDY   -12 -16  80 W5        30.50R WCI -24
$$
ABBREVIATIONS USED IN REMARKS
   TC - TEMPERATURES IN CELSIUS
  WCI - WIND CHILL INDEX
   HX - HEAT INDEX
  VSB - VISIBILITY
$$


USA.gov is the U.S. government's official web portal to all federal, state and local government web resources and services.